Tanger, Morocco

7:02 PM WET on February 08, 2016 (GMT +0000)
Ibn Batouta

Weather History for GMTT - October, 2012

Change the Weather History Date:

Monday, October 8, 2012

  Actual Average Record
Temperature  
Mean Temperature 69 °F -  
Max Temperature 79 °F 71 °F 98 °F (2011)
Min Temperature 59 °F 56 °F 48 °F (1996)
Cooling Degree Days 4    
Growing Degree Days 19 (Base 50)    
Moisture  
Dew Point 60 °F    
Average Humidity 72    
Maximum Humidity 88    
Minimum Humidity 44    
Precipitation  
Precipitation 0.00 in 0.11 in - ()
Sea Level Pressure  
Sea Level Pressure 30.09 in    
Wind  
Wind Speed 4 mph ()    
Max Wind Speed 10 mph    
Max Gust Speed -    
Visibility 4.8 miles    
Events      
Averages and records for this station are not official NWS values.
T = Trace of Precipitation, MM = Missing Value Source: Averaged Metar Reports

Daily Weather History Graph

Daily Weather History Graph

Search for Another Location

Airport or City:

Trip Planner

Search our weather history database for the weather conditions in past years. The results will help you decide how hot, cold, wet, or windy it might be!

Date:

Astronomy

Oct. 08, 2012 Rise Set
Actual Time 6:24 AM WET 5:57 PM WET
Civil Twilight 5:58 AM WET 6:22 PM WET
Nautical Twilight 5:29 AM WET 6:52 PM WET
Astronomical Twilight 4:59 AM WET 7:21 PM WET
Moon No Moon Rise 1:24 PM WET
Length of Visible Light 12h 23m
Length of Day
11h 32m
Waning Gibbous, 48% of the Moon is Illuminated
Oct 8
Waning Gibbous
Oct 15
New
Oct 22
First Quarter
Oct 29
Full
Nov 7
Last Quarter

Hourly Weather History & Observations

Time (WET) Temp. Dew Point Humidity Pressure Visibility Wind Dir Wind Speed Gust Speed Precip Events Conditions
12:00 AM 67 °F 61 °F 75% 30.12 in 5 mi East 6.9 mph - -   Scattered Clouds
12:00 AM 68.0 °F 60.8 °F 78% 30.09 in 5.0 mi East 6.9 mph - N/A   Partly Cloudy
12:30 AM 66.2 °F 60.8 °F 83% 30.09 in 5.0 mi SE 4.6 mph - N/A   Partly Cloudy
1:00 AM 66.2 °F 60.8 °F 83% 30.09 in 5.0 mi NNE 4.6 mph - N/A   Partly Cloudy
1:30 AM 64.4 °F 59.0 °F 83% 30.09 in 5.0 mi East 3.5 mph - N/A   Partly Cloudy
2:00 AM 64.4 °F 59.0 °F 83% 30.09 in 5.0 mi Calm Calm - N/A   Partly Cloudy
2:30 AM 62.6 °F 55.4 °F 77% 30.09 in 5.0 mi Calm Calm - N/A   Partly Cloudy
3:00 AM 63 °F 58 °F 80% 30.11 in 5 mi ESE 3.5 mph - -   Scattered Clouds
3:00 AM 62.6 °F 59.0 °F 88% 30.09 in 5.0 mi ESE 3.5 mph - N/A   Partly Cloudy
3:30 AM 62.6 °F 59.0 °F 88% 30.09 in - East 3.5 mph - N/A   Unknown
4:00 AM 62.6 °F 59.0 °F 88% 30.09 in - ESE 4.6 mph - N/A   Unknown
4:30 AM 60.8 °F 57.2 °F 88% 30.09 in 5.0 mi Calm Calm - N/A   Partly Cloudy
5:00 AM 60.8 °F 57.2 °F 88% 30.09 in 5.0 mi Variable 2.3 mph - N/A   Partly Cloudy
5:30 AM 60.8 °F 57.2 °F 88% 30.09 in 5.0 mi Variable 2.3 mph - N/A   Partly Cloudy
6:00 AM 60 °F 56 °F 83% 30.12 in 5 mi East 2.3 mph - -   Scattered Clouds
6:00 AM 59.0 °F 55.4 °F 88% 30.09 in 5.0 mi Variable 2.3 mph - N/A   Partly Cloudy
6:30 AM 59.0 °F 55.4 °F 88% 30.12 in 5.0 mi Variable 1.2 mph - N/A   Partly Cloudy
7:00 AM 60.8 °F 57.2 °F 88% 30.12 in 5.0 mi Calm Calm - N/A   Partly Cloudy
7:30 AM 64.4 °F 60.8 °F 88% 30.12 in 5.0 mi Variable 2.3 mph - N/A   Partly Cloudy
8:00 AM 68.0 °F 62.6 °F 83% 30.12 in 5.0 mi Calm Calm - N/A   Partly Cloudy
8:30 AM 71.6 °F 62.6 °F 73% 30.12 in 5.0 mi Variable 1.2 mph - N/A   Partly Cloudy
9:00 AM 76 °F 62 °F 52% 30.15 in 5 mi Calm Calm - -   Scattered Clouds
9:00 AM 75.2 °F 60.8 °F 61% 30.12 in 5.0 mi Calm Calm - N/A   Partly Cloudy
9:30 AM 75.2 °F 62.6 °F 65% 30.12 in 5.0 mi West 3.5 mph - N/A   Partly Cloudy
10:00 AM 75.2 °F 62.6 °F 65% 30.15 in - West 6.9 mph - N/A   Clear
10:30 AM 73.4 °F 64.4 °F 73% 30.12 in 3.7 mi West 10.4 mph - N/A   Scattered Clouds
11:00 AM 73.4 °F 64.4 °F 73% 30.12 in 3.7 mi WNW 10.4 mph - N/A   Scattered Clouds
11:30 AM 75.2 °F 64.4 °F 69% 30.12 in 3.7 mi West 9.2 mph - N/A   Scattered Clouds
12:00 PM 78.8 °F 62.6 °F 57% 30.12 in 3.7 mi West 8.1 mph - N/A   Scattered Clouds
12:30 PM 78.8 °F 62.6 °F 57% 30.12 in 3.7 mi West 6.9 mph - N/A   Scattered Clouds
1:00 PM 78.8 °F 62.6 °F 57% 30.09 in 3.7 mi West 8.1 mph - N/A   Scattered Clouds
1:30 PM 77.0 °F 64.4 °F 65% 30.09 in 3.7 mi West 9.2 mph - N/A   Scattered Clouds
2:00 PM 77.0 °F 64.4 °F 65% 30.09 in 3.7 mi West 8.1 mph - N/A   Scattered Clouds
2:30 PM 77.0 °F 64.4 °F 65% 30.09 in 5.0 mi West 8.1 mph - N/A   Unknown
3:00 PM 77 °F 64 °F 57% 30.09 in 5 mi West 10.4 mph - -  
3:00 PM 77.0 °F 64.4 °F 65% 30.06 in 5.0 mi West 10.4 mph - N/A   Unknown
3:30 PM 77.0 °F 64.4 °F 65% 30.06 in 5.0 mi West 6.9 mph - N/A   Unknown
4:00 PM 77.0 °F 62.6 °F 61% 30.06 in 5.0 mi West 5.8 mph - N/A   Unknown
4:30 PM 77.0 °F 62.6 °F 61% 30.06 in 5.0 mi West 4.6 mph - N/A   Unknown
5:00 PM 78.8 °F 62.6 °F 57% 30.06 in - Variable 2.3 mph - N/A   Clear
5:30 PM 78.8 °F 62.6 °F 57% 30.06 in - Calm Calm - N/A   Clear
6:00 PM 75 °F 58 °F 44% 30.07 in 6 mi East 3.5 mph - -  
6:00 PM 75.2 °F 57.2 °F 53% 30.06 in - East 3.5 mph - N/A   Clear
6:30 PM 73.4 °F 59.0 °F 61% 30.06 in - Calm Calm - N/A   Clear
7:00 PM 71.6 °F 57.2 °F 60% 30.06 in - NE 8.1 mph - N/A   Clear
7:30 PM 69.8 °F 57.2 °F 64% 30.06 in - Calm Calm - N/A   Clear
8:00 PM 69.8 °F 59.0 °F 68% 30.06 in - ESE 6.9 mph - N/A   Clear
8:30 PM 68.0 °F 60.8 °F 78% 30.09 in - ESE 5.8 mph - N/A   Clear
9:00 PM 65 °F 58 °F 71% 30.10 in 5 mi East 1.2 mph - -  
9:00 PM 66.2 °F 57.2 °F 73% 30.09 in 5.0 mi East 1.2 mph - N/A   Unknown
9:30 PM 66.2 °F 59.0 °F 78% 30.06 in 5.0 mi ESE 4.6 mph - N/A   Unknown
10:00 PM 66.2 °F 60.8 °F 83% 30.06 in 5.0 mi Variable 1.2 mph - N/A   Unknown
10:30 PM 64.4 °F 59.0 °F 83% 30.06 in 5.0 mi SE 2.3 mph - N/A   Unknown
11:00 PM 62.6 °F 57.2 °F 82% 30.06 in 5.0 mi Calm Calm - N/A   Unknown
11:30 PM - - N/A% 0.00 in - North - - N/A   Unknown